Monterey, CA

5:38 PM PDT on April 20, 2018 (GMT -0700)
Monterey Peninsula

Weather History for KMRY - December, 2013

Change the Weather History Date:

Saturday, December 7, 2013

  Actual Average Record
Temperature  
Mean Temperature 47 °F 52 °F  
Max Temperature 53 °F 61 °F 72 °F (2017)
Min Temperature 40 °F 43 °F 34 °F (2009)
Degree Days  
Heating Degree Days 18    
Month to date heating degree days 122  
Since 1 July heating degree days 889  
Cooling Degree Days 0    
Month to date cooling degree days 0  
Year to date cooling degree days 49  
Moisture  
Dew Point 37 °F    
Average Humidity 70    
Maximum Humidity 93    
Minimum Humidity 46    
Precipitation  
Precipitation 0.24 in - 0.58 in (2004)
Month to date precipitation 0.27  
Year to date precipitation 4.43  
Since 1 July precipitation 1.28  
Sea Level Pressure  
Sea Level Pressure 30.12 in    
Wind  
Wind Speed 9 mph (West)    
Max Wind Speed 21 mph    
Max Gust Speed 28 mph    
Visibility 9 miles    
Events Rain    
T = Trace of Precipitation, MM = Missing Value Source: NWS Daily Summary

Daily Weather History Graph

Daily Weather History Graph

Search for Another Location

Airport or City:

Astronomy

Dec. 07, 2013 Rise Set
Actual Time 7:06 AM PST 4:51 PM PST
Civil Twilight 6:37 AM PST 5:20 PM PST
Nautical Twilight 6:05 AM PST 5:52 PM PST
Astronomical Twilight 5:34 AM PST 6:23 PM PST
Moon 11:00 AM PST (12/7) 10:32 PM PST (12/7)
Length of Visible Light 10h 42m
Length of Day
9h 44m
Waxing Crescent, 30% of the Moon is Illuminated
Dec 7
Waxing Crescent
Dec 9
First Quarter
Dec 17
Full
Dec 25
Last Quarter
Jan 1
New

Hourly Weather History & Observations

Time (PST) Temp. Windchill Dew Point Humidity Pressure Visibility Wind Dir Wind Speed Gust Speed Precip Events Conditions
12:17 AM 51.8 °F - 46.4 °F 82% 30.00 in 10.0 mi South 13.8 mph 25.3 mph 0.00 in   Overcast
12:54 AM 52.0 °F - 46.0 °F 80% 30.02 in 10.0 mi South 13.8 mph 24.2 mph 0.00 in   Overcast
1:42 AM 51.8 °F - 48.2 °F 88% 29.95 in 10.0 mi SSW 13.8 mph 23.0 mph 0.07 in   Overcast
1:54 AM 52.0 °F - 48.0 °F 86% 29.99 in 7.0 mi South 17.3 mph 26.5 mph 0.07 in Rain Light Rain
2:23 AM 51.8 °F - 48.2 °F 88% 29.97 in 5.0 mi West 17.3 mph 23.0 mph 0.03 in Rain Light Rain
2:31 AM 48.2 °F - 44.6 °F 87% 29.97 in 3.0 mi WSW 16.1 mph 25.3 mph 0.09 in Rain Heavy Rain
2:39 AM 48.2 °F - 44.6 °F 87% 29.97 in 4.0 mi SW 15.0 mph - 0.12 in Rain Heavy Rain
2:50 AM 48.2 °F - 46.4 °F 93% 29.98 in 5.0 mi West 11.5 mph - 0.16 in Rain Heavy Rain
2:54 AM 48.9 °F - 46.9 °F 93% 30.02 in 5.0 mi West 11.5 mph - 0.16 in Rain Rain
3:13 AM 48.2 °F - 46.4 °F 93% 29.99 in 10.0 mi WSW 9.2 mph - 0.01 in Rain Light Rain
3:20 AM 50.0 °F - 46.4 °F 87% 29.99 in 10.0 mi West 11.5 mph - 0.01 in   Overcast
3:54 AM 50.0 °F - 41.0 °F 71% 30.04 in 10.0 mi WNW 10.4 mph - 0.01 in   Overcast
4:54 AM 50.0 °F - 39.9 °F 68% 30.05 in 10.0 mi West 10.4 mph - 0.00 in   Overcast
5:54 AM 48.9 °F - 37.0 °F 64% 30.07 in 10.0 mi WNW 6.9 mph - N/A   Scattered Clouds
6:54 AM 48.0 °F - 34.0 °F 58% 30.09 in 10.0 mi WNW 6.9 mph - N/A   Clear
7:54 AM 48.0 °F - 33.1 °F 56% 30.12 in 10.0 mi WNW 6.9 mph - N/A   Mostly Cloudy
8:54 AM 48.9 °F - 35.1 °F 59% 30.15 in 10.0 mi WNW 9.2 mph - N/A   Mostly Cloudy
9:54 AM 48.9 °F - 34.0 °F 56% 30.19 in 10.0 mi NW 6.9 mph - 0.00 in   Mostly Cloudy
10:54 AM 48.0 °F - 36.0 °F 63% 30.19 in 10.0 mi West 6.9 mph - 0.00 in   Overcast
11:54 AM 48.9 °F - 34.0 °F 56% 30.17 in 10.0 mi West 8.1 mph - N/A   Partly Cloudy
12:54 PM 50.0 °F - 30.0 °F 46% 30.17 in 10.0 mi West 13.8 mph 23.0 mph N/A   Clear
1:54 PM 48.9 °F - 28.9 °F 46% 30.17 in 10.0 mi West 13.8 mph 20.7 mph N/A   Partly Cloudy
2:54 PM 48.9 °F - 30.0 °F 48% 30.18 in 10.0 mi West 12.7 mph 20.7 mph N/A   Clear
3:54 PM 48.0 °F - 28.9 °F 48% 30.22 in 10.0 mi West 11.5 mph 23.0 mph N/A   Partly Cloudy
4:54 PM 46.9 °F - 30.9 °F 54% 30.22 in 10.0 mi WNW 6.9 mph 19.6 mph N/A   Mostly Cloudy
5:54 PM 46.9 °F - 32.0 °F 56% 30.24 in 10.0 mi West 9.2 mph 18.4 mph N/A   Overcast
6:54 PM 46.0 °F 41.4 °F 30.0 °F 54% 30.24 in 10.0 mi WNW 9.2 mph - N/A   Overcast
7:54 PM 46.0 °F 41.4 °F 30.0 °F 54% 30.25 in 10.0 mi NW 9.2 mph - N/A   Overcast
8:54 PM 45.0 °F 41.8 °F 28.0 °F 52% 30.26 in 10.0 mi WNW 5.8 mph - N/A   Clear
9:54 PM 44.1 °F 40.8 °F 28.9 °F 55% 30.26 in 10.0 mi NW 5.8 mph - N/A   Mostly Cloudy
10:54 PM 43.0 °F 41.3 °F 28.9 °F 58% 30.30 in 10.0 mi East 3.5 mph - N/A   Overcast
11:54 PM 41.0 °F 37.1 °F 28.9 °F 62% 30.28 in 10.0 mi East 5.8 mph - N/A   Overcast